Weather History for 78762 - September, 2013

Change the Weather History Date:

Sunday, September 22, 2013

  Actual Average Record
Temperature  
Mean Temperature 70 °F -  
Max Temperature 74 °F 78 °F - ()
Min Temperature 66 °F 64 °F - ()
Cooling Degree Days 5    
Growing Degree Days 20 (Base 50)    
Moisture  
Dew Point 67 °F    
Average Humidity 96    
Maximum Humidity 100    
Minimum Humidity 77    
Precipitation  
Precipitation 0.94 in 0.44 in - ()
Sea Level Pressure  
Sea Level Pressure 29.94 in    
Wind  
Wind Speed 4 mph ()    
Max Wind Speed 13 mph    
Max Gust Speed -    
Visibility 3.1 miles    
Events Fog , Rain    
T = Trace of Precipitation, MM = Missing Value Source: Averaged Metar Reports

Daily Weather History Graph

Daily Weather History Graph

Search for Another Location

Airport or City:

Trip Planner

Search our weather history database for the weather conditions in past years. The results will help you decide how hot, cold, wet, or windy it might be!

Date:

Astronomy

Sep. 22, 2013 Rise Set
Actual Time 5:26 AM CST 5:32 PM CST
Civil Twilight 5:05 AM CST 5:53 PM CST
Nautical Twilight 4:40 AM CST 6:18 PM CST
Astronomical Twilight 4:16 AM CST 6:42 PM CST
Moon 8:07 PM CST (9/22) 8:03 AM CST (9/22)
Length of Visible Light 12h 48m
Length of Day
12h 06m
Waning Gibbous, 88% of the Moon is Illuminated
Sep 22
Waning Gibbous
Sep 26
Last Quarter
Oct 4
New
Oct 11
First Quarter
Oct 18
Full

Hourly Weather History & Observations

Time (CST) Temp. Dew Point Humidity Pressure Visibility Wind Dir Wind Speed Gust Speed Precip Events Conditions
12:00 AM 70 °F 69 °F 96% 29.77 in 1 mi SW 3.5 mph - -   Mist
12:00 AM 69.8 °F 69.8 °F 100% 29.96 in 0.6 mi SW 3.5 mph - N/A   Mostly Cloudy
1:00 AM 69.8 °F 68.0 °F 94% 29.94 in 1.2 mi SW 4.6 mph - N/A   Mostly Cloudy
1:16 AM 69.8 °F 69.8 °F 100% 29.93 in 0.2 mi SW 4.6 mph - N/A Fog Drizzle
2:00 AM 69.8 °F 68.0 °F 94% 29.92 in 0.5 mi West 3.5 mph - N/A Fog , Rain Rain
2:27 AM 69.8 °F 68.0 °F 94% 29.93 in 0.9 mi WSW 3.5 mph - N/A Rain Light Rain
3:00 AM 68 °F 68 °F 99% 29.76 in 0 mi SW 5.8 mph - - Rain Light Rain
3:00 AM 68.0 °F 68.0 °F 100% 29.93 in 0.3 mi SW 5.8 mph - N/A Fog , Rain Light Rain
4:00 AM 68.0 °F 68.0 °F 100% 29.93 in 0.3 mi South 3.5 mph - N/A Fog Light Drizzle
5:00 AM 68.0 °F 68.0 °F 100% 29.95 in 0.5 mi SW 2.3 mph - N/A Fog , Rain Rain
5:13 AM 68.0 °F 68.0 °F 100% 29.95 in 3.1 mi WSW 2.3 mph - N/A Rain Rain
6:00 AM 68 °F 68 °F 99% 29.83 in 3 mi Calm Calm - - Rain Light Drizzle
6:00 AM 68.0 °F 68.0 °F 100% - 3.1 mi Calm Calm - N/A   Light Drizzle
7:00 AM 68.0 °F 68.0 °F 100% 29.98 in 3.7 mi Calm Calm - N/A Rain Light Rain
8:00 AM 68.0 °F 68.0 °F 100% 30.02 in 3.1 mi West 4.6 mph - N/A Rain Light Rain
9:00 AM 68 °F 67 °F 97% 29.90 in 2 mi WSW 4.6 mph - - Rain Light Rain
9:00 AM 68.0 °F 68.0 °F 100% - 1.9 mi WSW 4.6 mph - N/A Rain Light Rain
10:00 AM 68.0 °F 68.0 °F 100% - 1.9 mi West 4.6 mph - N/A Rain Light Rain
11:00 AM 68.0 °F 68.0 °F 100% - 3.1 mi West 4.6 mph - N/A Rain Light Rain
12:00 PM 68 °F 67 °F 98% 29.91 in 2 mi West 4.6 mph - - Rain Light Drizzle
12:00 PM 68.0 °F 68.0 °F 100% - 2.5 mi West 4.6 mph - N/A   Light Drizzle
1:00 PM 69.8 °F 68.0 °F 94% 30.01 in 5.0 mi WNW 3.5 mph - N/A Fog Fog
2:00 PM 71.6 °F 66.2 °F 83% 29.97 in 6.2 mi NE 4.6 mph - N/A   Mostly Cloudy
3:00 PM 72 °F 66 °F 77% 29.75 in 12 mi East 6.9 mph - -   Overcast
3:00 PM 71.6 °F 66.2 °F 83% 29.90 in - East 6.9 mph - N/A   Clear
4:00 PM 73.4 °F 66.2 °F 78% 29.86 in - East 6.9 mph - N/A   Clear
5:00 PM 69.8 °F 66.2 °F 88% 29.94 in 6.2 mi SSW 12.7 mph - N/A   Mostly Cloudy
6:00 PM 67 °F 66 °F 95% 29.83 in 6 mi West 10.4 mph - -   Overcast
6:00 PM 66.2 °F 66.2 °F 100% 29.98 in 6.2 mi West 10.4 mph - N/A   Mostly Cloudy
6:20 PM 66.2 °F 66.2 °F 100% 29.99 in 0.5 mi West 6.9 mph - N/A Fog Drizzle
6:40 PM 66.2 °F 66.2 °F 100% 30.01 in 2.5 mi West 5.8 mph - N/A   Light Drizzle
7:00 PM 66.2 °F 66.2 °F 100% 30.01 in 1.2 mi WSW 6.9 mph - N/A   Heavy Drizzle
7:15 PM 66.2 °F 66.2 °F 100% 30.02 in 3.1 mi WSW 6.9 mph - N/A   Drizzle
7:35 PM 66.2 °F 66.2 °F 100% - 1.2 mi West 5.8 mph - N/A   Drizzle
8:00 PM 66.2 °F 66.2 °F 100% 30.02 in 1.9 mi WSW 6.9 mph - N/A   Drizzle
8:15 PM 66.2 °F 66.2 °F 100% 30.03 in 6.2 mi Calm Calm - N/A Fog Patches of Fog
9:00 PM 66 °F 65 °F 96% 29.88 in 6 mi NNE 2.3 mph - -   Overcast
9:00 PM 66.2 °F 64.4 °F 94% 30.03 in 6.2 mi NNE 2.3 mph - N/A   Mostly Cloudy
10:00 PM 66.2 °F 66.2 °F 100% 30.03 in 6.2 mi East 3.5 mph - N/A   Mostly Cloudy
11:00 PM 66.2 °F 64.4 °F 94% 30.02 in 6.2 mi East 3.5 mph - N/A   Mostly Cloudy